| time (UTC) | temp F | wind direction | speed knots | gust knots | rain 1hr in | rain 24hr in | rain mn in | humidity % | barometer mb |
| 20260505111703 | 52 | 15 | 3.5 | 5.2 | 0.00 | 0.19 | 0.19 | 95 | 1000.0 |
| 20260505111204 | 51 | 40 | 4.3 | 8.7 | 0.01 | 0.19 | 0.19 | 95 | 1000.0 |
| 20260505110704 | 51 | 7 | 4.3 | 10.4 | 0.01 | 0.19 | 0.19 | 95 | 1000.0 |
| 20260505110203 | 51 | 95 | 2.6 | 7.8 | 0.02 | 0.19 | 0.19 | 95 | 1000.0 |
| 20260505102204 | 52 | 22 | 10.4 | 21.7 | 0.19 | 0.19 | 0.19 | 95 | 1000.0 |
| 20260505101704 | 52 | 28 | 11.3 | 20.0 | 0.19 | 0.19 | 0.19 | 95 | 1000.0 |
| 20260505101203 | 53 | 18 | 7.8 | 15.6 | 0.18 | 0.18 | 0.18 | 95 | 1000.0 |
| 20260505095704 | 53 | 358 | 7.8 | 14.8 | 0.16 | 0.16 | 0.16 | 94 | 1000.0 |
| 20260505095203 | 54 | 338 | 6.1 | 18.2 | 0.15 | 0.15 | 0.15 | 93 | 1000.0 |
| 20260505094704 | 54 | 344 | 7.0 | 14.8 | 0.14 | 0.14 | 0.14 | 92 | 1000.0 |
| 20260505093703 | 55 | 343 | 11.3 | 20.9 | 0.10 | 0.10 | 0.10 | 89 | 1000.0 |
| 20260505093203 | 57 | 354 | 8.7 | 18.2 | 0.07 | 0.07 | 0.07 | 86 | 1000.0 |
| 20260505092703 | 60 | 333 | 10.4 | 25.2 | 0.02 | 0.02 | 0.02 | 67 | 1000.0 |
| 20260505092204 | 63 | 329 | 11.3 | 20.9 | 0.00 | 0.00 | 0.00 | 65 | 1000.0 |
| 20260505091703 | 67 | 352 | 11.3 | 24.3 | 0.00 | 0.00 | 0.00 | 66 | 1000.0 |
| 20260505091204 | 69 | 0 | 2.6 | 7.0 | 0.00 | 0.00 | 0.00 | 71 | 1000.0 |
| 20260505090704 | 68 | 8 | 3.5 | 6.1 | 0.00 | 0.00 | 0.00 | 70 | 1000.0 |
| 20260505085204 | 69 | 30 | 2.6 | 4.3 | 0.00 | 0.00 | 0.00 | 68 | 1000.0 |
| 20260505084703 | 69 | 29 | 2.6 | 5.2 | 0.00 | 0.00 | 0.00 | 68 | 1000.0 |
| 20260505084203 | 69 | 328 | 1.7 | 5.2 | 0.00 | 0.00 | 0.00 | 67 | 1000.0 |
| 20260505083704 | 68 | 228 | 5.2 | 7.8 | 0.00 | 0.00 | 0.00 | 67 | 1000.0 |
| 20260505083204 | 68 | 212 | 5.2 | 7.8 | 0.00 | 0.00 | 0.00 | 67 | 1000.0 |
| 20260505082703 | 68 | 203 | 6.1 | 10.4 | 0.00 | 0.00 | 0.00 | 67 | 1000.0 |
| 20260505082203 | 68 | 215 | 6.1 | 7.8 | 0.00 | 0.00 | 0.00 | 67 | 1000.0 |
| 20260505081704 | 68 | 213 | 6.1 | 10.4 | 0.00 | 0.00 | 0.00 | 67 | 1000.0 |
| 20260505080704 | 68 | 214 | 6.1 | 11.3 | 0.00 | 0.00 | 0.00 | 67 | 1000.0 |
| 20260505080204 | 68 | 212 | 7.0 | 8.7 | 0.00 | 0.00 | 0.00 | 67 | 1000.0 |
| 20260505075704 | 68 | 204 | 7.0 | 11.3 | 0.00 | 0.00 | 0.00 | 66 | 1000.0 |
| 20260505075204 | 68 | 205 | 9.6 | 12.2 | 0.00 | 0.00 | 0.00 | 66 | 1000.0 |
| 20260505074704 | 68 | 202 | 7.8 | 11.3 | 0.00 | 0.00 | 0.00 | 66 | 1000.0 |
| 20260505074204 | 69 | 196 | 7.0 | 8.7 | 0.00 | 0.00 | 0.00 | 66 | 1000.0 |
| 20260505073704 | 68 | 211 | 6.1 | 10.4 | 0.00 | 0.00 | 0.00 | 66 | 1000.0 |
| 20260505072704 | 68 | 193 | 5.2 | 10.4 | 0.00 | 0.00 | 0.00 | 67 | 1000.0 |
| 20260505072204 | 68 | 196 | 6.1 | 8.7 | 0.00 | 0.00 | 0.00 | 68 | 1000.0 |
| 20260505071203 | 68 | 193 | 4.3 | 7.0 | 0.00 | 0.00 | 0.00 | 69 | 1000.0 |
| 20260505070704 | 68 | 169 | 2.6 | 5.2 | 0.00 | 0.00 | 0.00 | 68 | 1000.0 |
| 20260505070204 | 69 | 200 | 3.5 | 6.1 | 0.00 | 0.00 | 0.00 | 67 | 1000.0 |
| 20260505065703 | 69 | 170 | 2.6 | 5.2 | 0.00 | 0.00 | 0.00 | 66 | 1000.0 |
| 20260505064704 | 69 | 204 | 2.6 | 5.2 | 0.00 | 0.00 | 0.00 | 66 | 1000.0 |
| 20260505064203 | 69 | 211 | 2.6 | 6.1 | 0.00 | 0.00 | 0.00 | 66 | 1000.0 |
| 20260505063704 | 69 | 217 | 4.3 | 7.8 | 0.00 | 0.00 | 0.00 | 65 | 1000.0 |
| 20260505063204 | 69 | 204 | 5.2 | 7.8 | 0.00 | 0.00 | 0.00 | 66 | 1000.0 |
| 20260505062203 | 69 | 207 | 4.3 | 6.1 | 0.00 | 0.00 | 0.00 | 67 | 1000.0 |
| 20260505061704 | 69 | 195 | 2.6 | 5.2 | 0.00 | 0.00 | 0.00 | 67 | 1000.0 |
| 20260505061204 | 69 | 200 | 1.7 | 4.3 | 0.00 | 0.00 | 0.00 | 68 | 1000.0 |
| 20260505060704 | 69 | 180 | 1.7 | 4.3 | 0.00 | 0.00 | 0.00 | 68 | 1000.0 |
| 20260505060203 | 69 | 182 | 2.6 | 4.3 | 0.00 | 0.00 | 0.00 | 67 | 1000.0 |
| 20260505055704 | 69 | 168 | 2.6 | 4.3 | 0.00 | 0.00 | 0.00 | 65 | 1000.0 |
| 20260505055203 | 70 | 197 | 2.6 | 4.3 | 0.00 | 0.00 | 0.00 | 64 | 1000.0 |
| 20260505054204 | 71 | 196 | 2.6 | 4.3 | 0.00 | 0.00 | 0.00 | 62 | 1000.0 |
| 20260505053704 | 70 | 227 | 5.2 | 7.0 | 0.00 | 0.00 | 0.00 | 62 | 1000.0 |
| 20260505052703 | 70 | 216 | 7.8 | 12.2 | 0.00 | 0.00 | 0.00 | 62 | 1000.0 |
| 20260505052204 | 70 | 200 | 7.0 | 11.3 | 0.00 | 0.00 | 0.00 | 62 | 1000.0 |
| 20260505051704 | 70 | 207 | 5.2 | 7.0 | 0.00 | 0.00 | 0.00 | 62 | 1000.0 |
| 20260505051204 | 71 | 201 | 5.2 | 7.8 | 0.00 | 0.00 | 0.00 | 61 | 1000.0 |
| 20260505050704 | 71 | 202 | 5.2 | 7.8 | 0.00 | 0.00 | 0.00 | 61 | 1000.0 |
| 20260505041704 | 73 | 198 | 6.1 | 7.8 | 0.00 | 0.00 | 0.00 | 57 | 1000.0 |
| 20260505040203 | 73 | 215 | 6.1 | 8.7 | 0.00 | 0.00 | 0.00 | 56 | 1000.0 |
| 20260505035703 | 73 | 210 | 6.1 | 8.7 | 0.00 | 0.00 | 0.00 | 56 | 1000.0 |
| 20260505033704 | 74 | 221 | 4.3 | 7.0 | 0.00 | 0.00 | 0.00 | 55 | 1000.0 |
| 20260505033203 | 74 | 232 | 4.3 | 7.8 | 0.00 | 0.00 | 0.00 | 54 | 1000.0 |
| 20260505032703 | 74 | 223 | 5.2 | 8.7 | 0.00 | 0.00 | 0.00 | 54 | 1000.0 |
| 20260505032204 | 74 | 220 | 6.1 | 8.7 | 0.00 | 0.00 | 0.00 | 54 | 1000.0 |
| 20260505031704 | 74 | 220 | 6.1 | 7.8 | 0.00 | 0.00 | 0.00 | 54 | 1000.0 |
| 20260505031203 | 75 | 213 | 7.0 | 8.7 | 0.00 | 0.00 | 0.00 | 54 | 1000.0 |
| 20260505030703 | 75 | 224 | 6.1 | 8.7 | 0.00 | 0.00 | 0.00 | 53 | 1000.0 |
| 20260505030203 | 75 | 217 | 5.2 | 8.7 | 0.00 | 0.00 | 0.00 | 52 | 1000.0 |
| 20260505025704 | 75 | 235 | 5.2 | 7.0 | 0.00 | 0.00 | 0.00 | 52 | 1000.0 |
| 20260505025204 | 76 | 227 | 5.2 | 6.1 | 0.00 | 0.00 | 0.00 | 52 | 1000.0 |
| 20260505024703 | 76 | 221 | 6.1 | 12.2 | 0.00 | 0.00 | 0.00 | 52 | 1000.0 |
| 20260505024203 | 76 | 229 | 5.2 | 10.4 | 0.00 | 0.00 | 0.00 | 51 | 1000.0 |
| 20260505023703 | 76 | 223 | 5.2 | 10.4 | 0.00 | 0.00 | 0.00 | 51 | 1000.0 |
| 20260505022704 | 76 | 225 | 7.0 | 13.9 | 0.00 | 0.00 | 0.00 | 50 | 1000.0 |
| 20260505022203 | 76 | 213 | 7.8 | 12.2 | 0.00 | 0.00 | 0.00 | 50 | 1000.0 |
| 20260505021704 | 76 | 212 | 8.7 | 14.8 | 0.00 | 0.00 | 0.00 | 50 | 1000.0 |
| 20260505021203 | 76 | 228 | 7.8 | 13.0 | 0.00 | 0.00 | 0.00 | 50 | 1000.0 |
| 20260505020704 | 76 | 214 | 7.8 | 13.0 | 0.00 | 0.00 | 0.00 | 51 | 1000.0 |
| 20260505020204 | 77 | 211 | 8.7 | 12.2 | 0.00 | 0.00 | 0.00 | 51 | 1000.0 |
| 20260505015704 | 77 | 216 | 6.1 | 8.7 | 0.00 | 0.00 | 0.00 | 51 | 1000.0 |
| 20260505015203 | 77 | 214 | 6.1 | 8.7 | 0.00 | 0.00 | 0.00 | 51 | 1000.0 |
| 20260505014704 | 77 | 226 | 5.2 | 7.8 | 0.00 | 0.00 | 0.00 | 51 | 1000.0 |
| 20260505013704 | 77 | 214 | 5.2 | 7.0 | 0.00 | 0.00 | 0.00 | 51 | 1000.0 |
| 20260505013203 | 77 | 217 | 4.3 | 7.0 | 0.00 | 0.00 | 0.00 | 50 | 1000.0 |
| 20260505012703 | 78 | 226 | 6.1 | 8.7 | 0.00 | 0.00 | 0.00 | 50 | 1000.0 |
| 20260505012203 | 78 | 228 | 4.3 | 7.8 | 0.00 | 0.00 | 0.00 | 50 | 1000.0 |
| 20260505011704 | 78 | 242 | 4.3 | 7.8 | 0.00 | 0.00 | 0.00 | 49 | 1000.0 |
| 20260505011203 | 78 | 235 | 4.3 | 7.8 | 0.00 | 0.00 | 0.00 | 49 | 1000.0 |
| 20260505010704 | 78 | 227 | 6.1 | 10.4 | 0.00 | 0.00 | 0.00 | 49 | 1000.0 |
| 20260505010204 | 78 | 229 | 6.1 | 12.2 | 0.00 | 0.00 | 0.00 | 48 | 1000.0 |
| 20260505005704 | 78 | 223 | 6.1 | 11.3 | 0.00 | 0.00 | 0.00 | 48 | 1000.0 |
| 20260505004704 | 78 | 223 | 7.0 | 12.2 | 0.00 | 0.00 | 0.00 | 48 | 1000.0 |
| 20260505004203 | 78 | 223 | 8.7 | 14.8 | 0.00 | 0.00 | 0.00 | 47 | 1000.0 |
| 20260505003703 | 79 | 214 | 6.1 | 14.8 | 0.00 | 0.00 | 0.00 | 48 | 1000.0 |
| 20260505002704 | 79 | 211 | 10.4 | 14.8 | 0.00 | 0.00 | 0.00 | 47 | 1000.0 |
| 20260505002203 | 79 | 209 | 11.3 | 17.4 | 0.00 | 0.00 | 0.00 | 47 | 1000.0 |
| 20260505001703 | 79 | 206 | 8.7 | 13.9 | 0.00 | 0.00 | 0.00 | 48 | 1000.0 |
| 20260505001204 | 79 | 220 | 7.8 | 11.3 | 0.00 | 0.00 | 0.00 | 47 | 1000.0 |
| 20260505000703 | 79 | 215 | 10.4 | 17.4 | 0.00 | 0.00 | 0.00 | 47 | 1000.0 |
| 20260505000204 | 79 | 216 | 7.0 | 13.0 | 0.00 | 0.00 | 0.00 | 47 | 1000.0 |
| 20260504235704 | 79 | 210 | 10.4 | 19.1 | 0.00 | 0.00 | 0.00 | 47 | 1000.0 |
| 20260504235203 | 79 | 217 | 8.7 | 13.0 | 0.00 | 0.00 | 0.00 | 47 | 1000.0 |
| 20260504234704 | 80 | 207 | 7.8 | 13.9 | 0.00 | 0.00 | 0.00 | 46 | 1000.0 |
| 20260504234204 | 80 | 206 | 9.6 | 17.4 | 0.00 | 0.00 | 0.00 | 46 | 1000.0 |
| 20260504233703 | 80 | 219 | 11.3 | 14.8 | 0.00 | 0.00 | 0.00 | 46 | 1000.0 |
| 20260504233203 | 80 | 207 | 11.3 | 18.2 | 0.00 | 0.00 | 0.00 | 46 | 1000.0 |
| 20260504232704 | 80 | 219 | 10.4 | 15.6 | 0.00 | 0.00 | 0.00 | 45 | 1000.0 |
| 20260504232204 | 80 | 215 | 12.2 | 18.2 | 0.00 | 0.00 | 0.00 | 45 | 1000.0 |
| 20260504231704 | 80 | 216 | 12.2 | 18.2 | 0.00 | 0.00 | 0.00 | 45 | 1000.0 |
| 20260504231204 | 80 | 227 | 11.3 | 17.4 | 0.00 | 0.00 | 0.00 | 45 | 1000.0 |
| 20260504230204 | 81 | 222 | 7.8 | 20.0 | 0.00 | 0.00 | 0.00 | 45 | 1000.0 |
| 20260504225703 | 81 | 214 | 12.2 | 21.7 | 0.00 | 0.00 | 0.00 | 44 | 1000.0 |
| 20260504225203 | 81 | 211 | 12.2 | 27.8 | 0.00 | 0.00 | 0.00 | 43 | 1000.0 |
| 20260504224704 | 82 | 208 | 8.7 | 20.9 | 0.00 | 0.00 | 0.00 | 43 | 1000.0 |
| 20260504224203 | 81 | 217 | 12.2 | 18.2 | 0.00 | 0.00 | 0.00 | 43 | 1000.0 |
| 20260504223704 | 81 | 219 | 10.4 | 17.4 | 0.00 | 0.00 | 0.00 | 43 | 1000.0 |
| 20260504223203 | 81 | 218 | 12.2 | 26.1 | 0.00 | 0.00 | 0.00 | 42 | 1000.0 |
| 20260504222703 | 81 | 216 | 13.9 | 25.2 | 0.00 | 0.00 | 0.00 | 42 | 1000.0 |
| 20260504222203 | 82 | 222 | 11.3 | 20.0 | 0.00 | 0.00 | 0.00 | 43 | 1000.0 |
| 20260504221703 | 82 | 211 | 13.0 | 19.1 | 0.00 | 0.00 | 0.00 | 42 | 1000.0 |
| 20260504221204 | 81 | 205 | 14.8 | 28.7 | 0.00 | 0.00 | 0.00 | 42 | 1000.0 |
| 20260504220704 | 81 | 214 | 16.5 | 22.6 | 0.00 | 0.00 | 0.00 | 42 | 1000.0 |
| 20260504220204 | 81 | 206 | 11.3 | 20.9 | 0.00 | 0.00 | 0.00 | 42 | 1000.0 |
| 20260504215703 | 81 | 225 | 12.2 | 20.9 | 0.00 | 0.00 | 0.00 | 42 | 1000.0 |
| 20260504215203 | 81 | 214 | 17.4 | 25.2 | 0.00 | 0.00 | 0.00 | 41 | 1000.0 |
| 20260504214704 | 81 | 206 | 13.9 | 20.0 | 0.00 | 0.00 | 0.00 | 41 | 1000.0 |
| 20260504213703 | 81 | 219 | 14.8 | 24.3 | 0.00 | 0.00 | 0.00 | 42 | 1000.0 |
| 20260504213203 | 82 | 216 | 12.2 | 20.9 | 0.00 | 0.00 | 0.00 | 41 | 1000.0 |
| 20260504212703 | 81 | 221 | 12.2 | 20.0 | 0.00 | 0.00 | 0.00 | 42 | 1000.0 |
| 20260504212204 | 81 | 211 | 12.2 | 22.6 | 0.00 | 0.00 | 0.00 | 42 | 1000.0 |
| 20260504211704 | 82 | 225 | 12.2 | 19.1 | 0.00 | 0.00 | 0.00 | 40 | 1000.0 |
| 20260504211203 | 82 | 219 | 11.3 | 17.4 | 0.00 | 0.00 | 0.00 | 40 | 1000.0 |
| 20260504210203 | 81 | 216 | 15.6 | 27.8 | 0.00 | 0.00 | 0.00 | 39 | 1000.0 |
| 20260504205204 | 82 | 209 | 14.8 | 24.3 | 0.00 | 0.00 | 0.00 | 39 | 1000.0 |
| 20260504204704 | 82 | 220 | 14.8 | 25.2 | 0.00 | 0.00 | 0.00 | 40 | 1000.0 |
| 20260504204204 | 82 | 233 | 15.6 | 24.3 | 0.00 | 0.00 | 0.00 | 40 | 1000.0 |
| 20260504203203 | 82 | 211 | 11.3 | 19.1 | 0.00 | 0.00 | 0.00 | 41 | 1000.0 |
| 20260504202704 | 82 | 210 | 13.9 | 24.3 | 0.00 | 0.00 | 0.00 | 41 | 1000.0 |
| 20260504202203 | 82 | 210 | 13.9 | 22.6 | 0.00 | 0.00 | 0.00 | 42 | 1000.0 |
| 20260504201703 | 81 | 208 | 15.6 | 21.7 | 0.00 | 0.00 | 0.00 | 40 | 1000.0 |
| 20260504201204 | 82 | 207 | 12.2 | 22.6 | 0.00 | 0.00 | 0.00 | 42 | 1000.0 |
| 20260504200703 | 81 | 213 | 14.8 | 25.2 | 0.00 | 0.00 | 0.00 | 41 | 1000.0 |
| 20260504200203 | 81 | 217 | 13.0 | 20.0 | 0.00 | 0.00 | 0.00 | 41 | 1000.0 |
| 20260504195703 | 81 | 220 | 14.8 | 22.6 | 0.00 | 0.00 | 0.00 | 41 | 1000.0 |
| 20260504195203 | 82 | 230 | 12.2 | 20.0 | 0.00 | 0.00 | 0.00 | 41 | 1000.0 |
| 20260504194703 | 82 | 203 | 11.3 | 19.1 | 0.00 | 0.00 | 0.00 | 42 | 1000.0 |
| 20260504194204 | 81 | 209 | 10.4 | 18.2 | 0.00 | 0.00 | 0.00 | 43 | 1000.0 |
| 20260504193703 | 82 | 203 | 9.6 | 20.0 | 0.00 | 0.00 | 0.00 | 44 | 1000.0 |
| 20260504193204 | 80 | 228 | 10.4 | 19.1 | 0.00 | 0.00 | 0.00 | 47 | 1000.0 |
| 20260504192703 | 80 | 208 | 8.7 | 13.9 | 0.00 | 0.00 | 0.00 | 45 | 1000.0 |
| 20260504192203 | 80 | 230 | 8.7 | 13.9 | 0.00 | 0.00 | 0.00 | 46 | 1000.0 |
| 20260504191704 | 80 | 221 | 7.8 | 15.6 | 0.00 | 0.00 | 0.00 | 48 | 1000.0 |
| 20260504191203 | 79 | 220 | 8.7 | 15.6 | 0.00 | 0.00 | 0.00 | 49 | 1000.0 |
| 20260504190703 | 78 | 223 | 10.4 | 18.2 | 0.00 | 0.00 | 0.00 | 50 | 1000.0 |
| 20260504190203 | 77 | 217 | 10.4 | 14.8 | 0.00 | 0.00 | 0.00 | 49 | 1000.0 |
| 20260504185704 | 77 | 207 | 11.3 | 21.7 | 0.00 | 0.00 | 0.00 | 48 | 1000.0 |
| 20260504185204 | 77 | 218 | 13.9 | 20.9 | 0.00 | 0.00 | 0.00 | 48 | 1000.0 |
| 20260504184704 | 77 | 205 | 15.6 | 20.0 | 0.00 | 0.00 | 0.00 | 48 | 1000.0 |
| 20260504184203 | 77 | 200 | 10.4 | 20.0 | 0.00 | 0.00 | 0.00 | 49 | 1000.0 |
| 20260504183703 | 76 | 194 | 12.2 | 19.1 | 0.00 | 0.00 | 0.00 | 51 | 1000.0 |
| 20260504183203 | 76 | 205 | 12.2 | 21.7 | 0.00 | 0.00 | 0.00 | 52 | 1000.0 |
| 20260504182704 | 76 | 209 | 13.9 | 20.0 | 0.00 | 0.00 | 0.00 | 50 | 1000.0 |
| 20260504182203 | 76 | 212 | 13.9 | 21.7 | 0.00 | 0.00 | 0.00 | 50 | 1000.0 |
| 20260504181704 | 77 | 216 | 12.2 | 22.6 | 0.00 | 0.00 | 0.00 | 47 | 1000.0 |
| 20260504180703 | 78 | 226 | 12.2 | 21.7 | 0.00 | 0.00 | 0.00 | 45 | 1000.0 |
| 20260504180203 | 78 | 207 | 11.3 | 21.7 | 0.00 | 0.00 | 0.00 | 44 | 1000.0 |
| 20260504175704 | 78 | 209 | 14.8 | 20.9 | 0.00 | 0.00 | 0.00 | 44 | 1000.0 |
| 20260504174704 | 77 | 222 | 8.7 | 13.0 | 0.00 | 0.00 | 0.00 | 46 | 1000.0 |
| 20260504174204 | 77 | 220 | 9.6 | 14.8 | 0.00 | 0.00 | 0.00 | 45 | 1000.0 |
| 20260504173704 | 77 | 221 | 8.7 | 15.6 | 0.00 | 0.00 | 0.00 | 46 | 1000.0 |
| 20260504173204 | 77 | 236 | 10.4 | 20.0 | 0.00 | 0.00 | 0.00 | 46 | 1000.0 |
| 20260504172203 | 77 | 224 | 9.6 | 19.1 | 0.00 | 0.00 | 0.00 | 45 | 1000.0 |
| 20260504171703 | 77 | 219 | 8.7 | 13.9 | 0.00 | 0.00 | 0.00 | 45 | 1000.0 |
| 20260504170703 | 79 | 237 | 8.7 | 15.6 | 0.00 | 0.00 | 0.00 | 43 | 1000.0 |
| 20260504170204 | 79 | 230 | 10.4 | 20.0 | 0.00 | 0.00 | 0.00 | 44 | 1000.0 |
| 20260504160204 | 77 | 232 | 9.6 | 19.1 | 0.00 | 0.00 | 0.00 | 44 | 1000.0 |
| 20260504150704 | 74 | 217 | 11.3 | 21.7 | 0.00 | 0.00 | 0.00 | 47 | 1000.0 |
| 20260504150203 | 73 | 212 | 13.9 | 22.6 | 0.00 | 0.00 | 0.00 | 47 | 1000.0 |
| 20260504140703 | 70 | 219 | 12.2 | 18.2 | 0.00 | 0.00 | 0.00 | 51 | 1000.0 |
| 20260504140204 | 71 | 212 | 9.6 | 15.6 | 0.00 | 0.00 | 0.00 | 50 | 1000.0 |
| 20260504130204 | 67 | 213 | 11.3 | 20.9 | 0.00 | 0.00 | 0.00 | 54 | 1000.0 |
| 20260504120204 | 67 | 214 | 14.8 | 21.7 | 0.00 | 0.00 | 0.00 | 52 | 1000.0 |